GW4785 Weather Reports


Display with metric or nautical units.
time (UTC)temp
F
wind
direction
speed
MPH
gust
MPH
rain 1hr
in
rain 24hr
in
rain mn
in
humidity
%
barometer
mb
20260504023928 45 112 0.0 0.0 0.00 0.00 0.00 90 1015.3
20260504023424 45 112 0.0 0.0 0.00 0.00 0.00 90 1015.0
20260504022920 45 119 0.0 0.0 0.00 0.00 0.00 89 1015.4
20260504022417 45 117 0.0 0.0 0.00 0.00 0.00 88 1015.4
20260504021914 45 119 0.0 0.0 0.00 0.00 0.00 88 1015.3
20260504021412 46 116 0.0 0.0 0.00 0.00 0.00 87 1015.6
20260504020909 46 116 0.0 0.0 0.00 0.00 0.00 86 1015.4
20260504020405 46 116 0.0 0.0 0.00 0.00 0.00 86 1015.6
20260504015901 47 116 0.0 0.0 0.00 0.00 0.00 84 1015.7
20260504015357 47 117 0.0 0.0 0.00 0.00 0.00 83 1015.3
20260504014853 48 117 0.0 0.0 0.00 0.00 0.00 80 1015.4
20260504014349 48 115 1.0 1.0 0.00 0.00 0.00 78 1015.4
20260504013847 49 115 0.0 0.0 0.00 0.00 0.00 77 1015.2
20260504013345 49 115 0.0 0.0 0.00 0.00 0.00 78 1015.0
20260504012841 50 115 0.0 0.0 0.00 0.00 0.00 78 1015.0
20260504012339 50 112 0.0 1.0 0.00 0.00 0.00 76 1014.9
20260504011836 51 116 0.0 0.0 0.00 0.00 0.00 72 1014.9
20260504011332 51 115 0.0 0.0 0.00 0.00 0.00 72 1014.7
20260504010828 52 115 0.0 0.0 0.00 0.00 0.00 68 1014.6
20260504010324 52 116 0.0 0.0 0.00 0.00 0.00 61 1014.7
20260504005821 53 116 0.0 0.0 0.00 0.00 0.00 61 1014.6
20260504005318 53 115 0.0 0.0 0.00 0.00 0.00 67 1014.4
20260504004816 55 129 0.0 1.0 0.00 0.00 0.00 59 1014.7
20260504004313 55 120 1.0 2.0 0.00 0.00 0.00 54 1014.5
20260504003809 56 109 0.0 2.0 0.00 0.00 0.00 58 1014.3
20260504003307 56 126 1.0 2.0 0.00 0.00 0.00 53 1014.5
20260504002802 57 118 1.0 3.0 0.00 0.00 0.00 54 1014.4
20260504002300 57 133 1.0 2.0 0.00 0.00 0.00 52 1014.4
20260504001757 58 142 4.0 4.0 0.00 0.00 0.00 50 1014.4
20260504001254 58 138 1.0 3.0 0.00 0.00 0.00 50 1014.4
20260504000751 59 124 2.0 6.0 0.00 0.00 0.00 49 1014.2
20260504000248 59 116 2.0 7.0 0.00 0.00 0.00 50 1014.4
20260503235746 59 107 1.0 3.0 0.00 0.00 0.00 49 1014.4
20260503235243 60 118 2.0 2.0 0.00 0.00 0.00 48 1014.5
20260503234741 60 108 3.0 7.0 0.00 0.00 0.00 46 1014.5
20260503234239 60 113 4.0 6.0 0.00 0.00 0.00 45 1014.5
20260503233735 60 118 4.0 8.0 0.00 0.00 0.00 45 1014.2
20260503233231 60 124 2.0 3.0 0.00 0.00 0.00 47 1014.7
20260503232728 60 118 2.0 8.0 0.00 0.00 0.00 44 1014.6
20260503232226 61 155 5.0 7.0 0.00 0.00 0.00 44 1014.7
20260503231724 61 116 6.0 7.0 0.00 0.00 0.00 43 1014.9
20260503231220 61 160 2.0 6.0 0.00 0.00 0.00 42 1014.8
20260503230716 61 141 1.0 3.0 0.00 0.00 0.00 43 1015.2
20260503230214 61 237 2.0 3.0 0.00 0.00 0.00 44 1014.9
20260503225711 61 130 0.0 4.0 0.00 0.00 0.00 45 1015.2
20260503225211 61 129 3.0 7.0 0.00 0.00 0.00 43 1015.4
20260503224709 61 142 2.0 7.0 0.00 0.00 0.00 45 1015.4
20260503224207 62 127 2.0 7.0 0.00 0.00 0.00 43 1015.6
20260503223704 63 161 2.0 8.0 0.00 0.00 0.00 43 1015.5
20260503223201 63 226 4.0 8.0 0.00 0.00 0.00 42 1015.3
20260503222657 63 153 3.0 6.0 0.00 0.00 0.00 40 1015.4
20260503222155 63 169 2.0 7.0 0.00 0.00 0.00 42 1015.4
20260503221654 62 200 5.0 10.0 0.00 0.00 0.00 40 1015.6
20260503221150 63 221 8.0 10.0 0.00 0.00 0.00 39 1015.7
20260503220647 64 155 2.0 4.0 0.00 0.00 0.00 42 1015.9
20260503220143 63 146 4.0 6.0 0.00 0.00 0.00 40 1015.6
20260503215641 63 190 3.0 8.0 0.00 0.00 0.00 41 1015.6
20260503215137 63 173 3.0 9.0 0.00 0.00 0.00 42 1016.0
20260503214636 63 151 2.0 7.0 0.00 0.00 0.00 41 1016.2
20260503214132 63 146 2.0 9.0 0.00 0.00 0.00 41 1016.0
20260503213626 63 141 4.0 9.0 0.00 0.00 0.00 40 1016.2
20260503213122 65 106 1.0 4.0 0.00 0.00 0.00 42 1015.9
20260503212619 63 130 2.0 10.0 0.00 0.00 0.00 39 1015.9
20260503212116 63 146 4.0 9.0 0.00 0.00 0.00 41 1015.9
20260503211609 63 210 4.0 9.0 0.00 0.00 0.00 40 1016.0
20260503211104 62 128 5.0 9.0 0.00 0.00 0.00 40 1016.5
20260503210601 62 162 6.0 8.0 0.00 0.00 0.00 40 1016.4
20260503210056 62 94 6.0 9.0 0.00 0.00 0.00 40 1016.4
20260503205553 62 209 4.0 11.0 0.00 0.00 0.00 39 1016.4
20260503205049 62 129 2.0 8.0 0.00 0.00 0.00 40 1016.5
20260503204546 62 181 7.0 18.0 0.00 0.00 0.00 42 1016.5
20260503204043 62 86 3.0 6.0 0.00 0.00 0.00 41 1016.6
20260503203535 63 135 7.0 14.0 0.00 0.00 0.00 38 1016.7
20260503203032 62 188 8.0 10.0 0.00 0.00 0.00 39 1016.6
20260503202530 62 104 2.0 6.0 0.00 0.00 0.00 43 1016.8
20260503202027 62 86 8.0 10.0 0.00 0.00 0.00 39 1016.7
20260503201520 63 117 7.0 9.0 0.00 0.00 0.00 40 1017.1
20260503201017 62 159 2.0 8.0 0.00 0.00 0.00 44 1017.4
20260503200513 61 144 7.0 13.0 0.00 0.00 0.00 41 1017.4
20260503200009 63 175 4.0 8.0 0.00 0.00 0.00 45 1017.6
20260503195506 61 184 2.0 9.0 0.00 0.00 0.00 41 1017.6
20260503195002 61 119 9.0 11.0 0.00 0.00 0.00 39 1017.6
20260503194500 62 100 4.0 8.0 0.00 0.00 0.00 43 1017.8
20260503193955 61 108 3.0 10.0 0.00 0.00 0.00 44 1017.9
20260503193451 60 152 4.0 8.0 0.00 0.00 0.00 42 1018.3
20260503192947 61 134 5.0 10.0 0.00 0.00 0.00 45 1018.1
20260503192444 60 157 2.0 10.0 0.00 0.00 0.00 41 1018.4
20260503191939 61 142 2.0 8.0 0.00 0.00 0.00 44 1018.2
20260503191437 60 215 7.0 10.0 0.00 0.00 0.00 41 1018.5
20260503190933 60 77 4.0 7.0 0.00 0.00 0.00 42 1018.4
20260503190431 60 137 3.0 9.0 0.00 0.00 0.00 44 1018.6
20260503185927 61 188 6.0 7.0 0.00 0.00 0.00 39 1018.6
20260503185424 60 101 2.0 4.0 0.00 0.00 0.00 48 1018.5
20260503184923 61 123 6.0 8.0 0.00 0.00 0.00 40 1018.9
20260503184420 59 99 5.0 9.0 0.00 0.00 0.00 41 1018.6
20260503183916 59 118 2.0 7.0 0.00 0.00 0.00 43 1018.8
20260503183413 60 115 5.0 8.0 0.00 0.00 0.00 43 1018.9
20260503182910 59 85 5.0 9.0 0.00 0.00 0.00 44 1019.0
20260503182409 59 100 6.0 13.0 0.00 0.00 0.00 40 1019.0
20260503181906 61 121 2.0 8.0 0.00 0.00 0.00 41 1019.2
20260503181403 59 109 4.0 4.0 0.00 0.00 0.00 42 1019.1
20260503180859 60 96 4.0 8.0 0.00 0.00 0.00 42 1019.1
20260503180357 58 99 2.0 10.0 0.00 0.00 0.00 41 1019.2
20260503175853 59 123 1.0 6.0 0.00 0.00 0.00 44 1019.4
20260503175352 59 115 0.0 6.0 0.00 0.00 0.00 42 1019.4
20260503174847 60 169 7.0 11.0 0.00 0.00 0.00 39 1019.7
20260503174345 59 136 3.0 8.0 0.00 0.00 0.00 45 1019.4
20260503173845 59 86 3.0 10.0 0.00 0.00 0.00 45 1019.7
20260503173342 59 79 4.0 6.0 0.00 0.00 0.00 49 1020.0
20260503172838 59 92 3.0 6.0 0.00 0.00 0.00 41 1020.1
20260503172336 59 142 2.0 7.0 0.00 0.00 0.00 41 1019.9
20260503171832 58 137 4.0 6.0 0.00 0.00 0.00 45 1019.9
20260503171329 58 141 4.0 8.0 0.00 0.00 0.00 41 1020.2
20260503170826 60 113 1.0 4.0 0.00 0.00 0.00 44 1020.0
20260503170323 58 318 0.0 2.0 0.00 0.00 0.00 47 1020.3
20260503150715 57 206 3.0 6.0 0.00 0.00 0.00 46 1021.3
20260503150211 56 133 4.0 4.0 0.00 0.00 0.00 47 1021.3
20260503140136 51 133 2.0 4.0 0.00 0.00 0.00 57 1021.5
20260503131105 47 142 1.0 6.0 0.00 0.00 0.00 71 1021.3
20260503130603 47 135 1.0 2.0 0.00 0.00 0.00 78 1021.3
20260503110453 30 120 0.0 0.0 0.00 0.00 0.00 99 1020.5
20260503090338 29 120 0.0 0.0 0.00 0.00 0.00 99 1020.1
20260503081306 30 120 0.0 0.0 0.00 0.00 0.00 99 1019.9
20260503080802 30 120 0.0 0.0 0.00 0.00 0.00 99 1019.7
20260503080259 30 121 0.0 0.0 0.00 0.00 0.00 99 1019.8
20260503072736 31 120 0.0 0.0 0.00 0.00 0.00 99 1019.7
20260503072233 31 120 0.0 0.0 0.00 0.00 0.00 99 1019.6
20260503071729 31 120 0.0 0.0 0.00 0.00 0.00 99 1019.6
20260503071226 32 120 0.0 0.0 0.00 0.00 0.00 99 1019.8
20260503070722 32 120 0.0 0.0 0.00 0.00 0.00 99 1019.6
20260503070221 32 120 0.0 0.0 0.00 0.00 0.00 99 1019.7
20260503060145 33 120 0.0 0.0 0.00 0.00 0.00 99 1020.0
20260503054632 34 120 0.0 0.0 0.00 0.00 0.00 99 1019.6
20260503054129 34 120 0.0 0.0 0.00 0.00 0.00 99 1019.8
20260503053627 34 120 0.0 0.0 0.00 0.00 0.00 99 1019.6
20260503053125 35 120 0.0 0.0 0.00 0.00 0.00 99 1019.9
20260503052621 35 120 0.0 0.0 0.00 0.00 0.00 99 1019.9
20260503052118 35 120 0.0 0.0 0.00 0.00 0.00 99 1019.9
20260503051613 35 120 0.0 0.0 0.00 0.00 0.00 99 1019.9
20260503051111 35 120 0.0 0.0 0.00 0.00 0.00 99 1019.8
20260503050607 36 121 0.0 0.0 0.00 0.00 0.00 98 1020.0
20260503050104 36 121 0.0 0.0 0.00 0.00 0.00 98 1019.9
20260503045601 36 121 0.0 0.0 0.00 0.00 0.00 97 1019.9
20260503045059 37 121 0.0 0.0 0.00 0.00 0.00 96 1019.9
20260503044555 37 120 0.0 0.0 0.00 0.00 0.00 94 1019.8
20260503044053 37 121 0.0 0.0 0.00 0.00 0.00 93 1019.9
20260503043549 37 120 0.0 0.0 0.00 0.00 0.00 92 1019.9
20260503043046 38 120 0.0 0.0 0.00 0.00 0.00 91 1019.8
20260503042542 38 121 0.0 0.0 0.00 0.00 0.00 92 1019.8
20260503042038 39 121 0.0 0.0 0.00 0.00 0.00 91 1019.7
20260503041535 38 111 0.0 1.0 0.00 0.00 0.00 91 1019.7
20260503041033 39 117 0.0 0.0 0.00 0.00 0.00 91 1019.8
20260503040530 38 121 0.0 0.0 0.00 0.00 0.00 91 1019.8
20260503040028 38 120 0.0 0.0 0.00 0.00 0.00 93 1019.6
20260503035524 38 120 0.0 0.0 0.00 0.00 0.00 94 1019.7
20260503035022 39 121 0.0 0.0 0.00 0.00 0.00 95 1019.8
20260503034519 38 120 0.0 0.0 0.00 0.00 0.00 95 1019.7
20260503034016 39 118 0.0 0.0 0.00 0.00 0.00 96 1019.6
20260503033513 38 118 0.0 0.0 0.00 0.00 0.00 96 1019.6
20260503033011 38 126 0.0 0.0 0.00 0.00 0.00 98 1019.6
20260503032509 38 114 0.0 0.0 0.00 0.00 0.00 98 1019.5
20260503032007 39 119 0.0 0.0 0.00 0.00 0.00 99 1019.4
20260503031505 39 120 0.0 0.0 0.00 0.00 0.00 98 1019.4
20260503031001 39 121 0.0 0.0 0.00 0.00 0.00 98 1019.5
20260503030457 39 127 0.0 0.0 0.00 0.00 0.00 98 1019.5
20260503025954 39 120 0.0 0.0 0.00 0.00 0.00 99 1019.5
20260503025451 39 115 0.0 0.0 0.00 0.00 0.00 99 1019.4
20260503024949 39 118 0.0 0.0 0.00 0.00 0.00 99 1019.4
20260503024445 39 119 0.0 0.0 0.00 0.00 0.00 98 1019.4